Regional Weather Roundup
Issued by NWS

Home | Current Version | Previous Version | Text Only | Print | Product List | Glossary Off
Versions: 1 2 3 4 5 6 7 8 9 10 11 12 13 14 15 16 17 18 19 20 21 22 23 24 25 26 27 28 29 30 31 32 33 34 35 36 37 38 39 40 41 42 43 44 45 46 47 48 49 50

000
ASUS45 KBOU 201110
RWRCO

WEATHER ROUNDUP FOR COLORADO
NATIONAL WEATHER SERVICE DENVER/BOULDER CO
400 AM MST SAT JAN 20 2018

NOTE: "FAIR" INDICATES FEW OR NO CLOUDS BELOW 12000 FEET WITH NO
SIGNIFICANT WEATHER AND/OR OBSTRUCTIONS TO VISIBILITY.

COZ001>005-013-030-031-201200-
...NORTHWEST COLORADO...

CITY           SKY/WX    TMP DP  RH WIND       PRES   REMARKS
CRAIG          CLOUDY    32  25  75 NE6       29.80F WCI  26
HAYDEN         CLOUDY   N/A N/A N/A SW9       29.82R
MEEKER         CLOUDY    41  24  51 CALM      29.78F
RABBIT EARS PA CLOUDY    30  21  69 SW9G28    29.87F WCI  22
STEAMBOAT SPGS CLOUDY    22  18  84 NW3       29.81S
WALDEN         FAIR      28  16  59 SW7       29.82S WCI  21
$$

COZ006>008-011-201200-
...WEST CENTRAL VALLEYS...

CITY           SKY/WX    TMP DP  RH WIND       PRES   REMARKS
GRAND JUNCTION FAIR      29  22  75 CALM      29.78F
MONTROSE       FAIR      47  20  34 MISG      29.84F
EAGLE          FAIR      26  19  74 CALM      29.85F
RIFLE          MOCLDY    26  22  84 CALM      29.81S
DELTA          FAIR      39  23  53 CALM      29.83F
NUCLA          FAIR      45  21  39 S7        29.90F
$$

COZ017>023-064>068-201200-
...SOUTHWEST COLORADO...

CITY           SKY/WX    TMP DP  RH WIND       PRES   REMARKS
DURANGO        FAIR      20  15  81 NE6       29.97F WCI  12
CORTEZ         CLOUDY    30  23  75 NE5       29.92F WCI  25
PAGOSA SPRINGS FAIR      24  16  72 CALM      30.01S
TELLURIDE      FAIR      38  16  39 SE3G18    29.95F
WOLF CREEK PAS FAIR      19  12  73 S25G36    30.06S WCI   2
$$

COZ009-010-012-014-032>034-037-058>063-201200-
...CENTRAL COLORADO...

CITY           SKY/WX    TMP DP  RH WIND       PRES   REMARKS
ASPEN          FAIR      27  18  69 S6        29.82F WCI  20
BUENA VISTA    FAIR      20  12  71 W7        29.89F WCI  11
COPPER MTN     NOT AVBL
BERTHOUD PASS  FAIR      21  10  63 W12G26    29.95S WCI   9
COTTONWOOD PAS   N/A     39  18  41 CALM      29.92F
GUNNISON       FAIR      14  10  84 CALM      29.94F
KREMMLING      FAIR      28  21  74 N3        29.84F
LEADVILLE      FAIR      22  12  65 NE6       29.89F WCI  14
MONARCH PASS   CLOUDY    23  12  63 SW18      30.09F WCI   9
SALIDA         FAIR      42  15  33 SW6       29.96F
SUNLIGHT       CLOUDY    28  18  64 SW14G30   29.93F WCI  17
WILKERSON PASS FAIR      27  10  50 SW17G24   29.96F WCI  14
$$

COZ069>075-201200-
...SAN LUIS VALLEY/SANGRE DE CRISTO MOUNTAINS...

CITY           SKY/WX    TMP DP  RH WIND       PRES   REMARKS
ALAMOSA        FAIR      23  13  65 CALM      29.93F
DEL NORTE      FAIR      21   9  59 NW3       29.95F
LA VETA PASS   FAIR      32  14  47 S15G30      N/A  WCI  22
SAGUACHE       FAIR      16   9  73 NW8       29.96F WCI   5
$$

COZ035-036-038>040-201200-
...NORTHERN COLORADO FRONT RANGE...

CITY           SKY/WX    TMP DP  RH WIND       PRES   REMARKS
DENVER INTL AP FAIR      42  16  34 SW8       29.73F
DMNS CITY PARK NOT AVBL
AURORA         MOCLDY    42  16  35 SW13      29.74F
FRONT RANGE AP FAIR      43  18  36 W12       29.75S
ERIE MUNI ARPT FAIR      25  17  73 CALM      29.79F
BOULDER MUN AP FAIR      37  18  44 CALM      29.73F
CENTENNIAL     FAIR      50  17  27 SW20G29   29.75S
BROOMFIELD     FAIR      41  12  30 W7        29.75S
FORT COLLINS   NOT AVBL
LONGMONT       FAIR      28  20  72 W5        29.76S WCI  22
$$

COZ041-046-047-076>085-087-088-201200-
...PIKES PEAK/PALMER DIVIDE AND SOUTHERN FOOTHILLS...

CITY           SKY/WX    TMP DP  RH WIND       PRES   REMARKS
COLO. SPRINGS  FAIR      37  13  37 VRB3      29.80S
A. F. ACADEMY  FAIR      36  12  37 N6        29.80S
SCHRIEVER AFB  FAIR      37   9  32 CALM      29.80S
CHEYENNE MTN   FAIR      52  12  19 W10G21    29.77S
ELLICOTT         N/A    N/A N/A N/A CALM      29.78S
FALCON         FAIR      38  10  31 SW8       29.82S
FORT CARSON    FAIR      42  13  30 CALM      29.77S
LIMON          FAIR      33  16  49 NW7       29.73F WCI  27
MONUMENT HILL  FAIR      36  16  44 SW10      29.83S
CANON CITY     FAIR      43  18  36 SW12      29.79R
WALSENBURG     FAIR      50  18  27 W10       29.84F
TRINIDAD       FAIR      41  18  39 SW13      29.83S
$$

COZ042>045-048>051-090-091-201200-
...NORTHEAST COLORADO...

CITY           SKY/WX    TMP DP  RH WIND       PRES   REMARKS
GREELEY ARPT   FAIR      24  18  77 N5        29.75R WCI  18
AKRON          FAIR      33  19  56 S8        29.72F WCI  26
BURLINGTON     FAIR      32  20  61 N7        29.73F WCI  26
WRAY           FAIR      28  25  86 W5        29.75S WCI  23
YUMA           FAIR      23  16  74 SW3       29.73F
STERLING       FAIR      27  23  86 N3        29.73S
HOLYOKE        FAIR      30  27  86 NW3       29.74R
FORT MORGAN    FAIR      31  18  57 NW3       29.74R
$$

COZ086-089-092>099-201200-
...SOUTHEAST COLORADO...

CITY           SKY/WX    TMP DP  RH WIND       PRES   REMARKS
PUEBLO         FAIR      32  18  56 W9        29.75F WCI  24
LA JUNTA       FAIR      43  20  39 VRB3      29.74S
LAMAR          FAIR      26  13  57 W3        29.71F
SPRINGFIELD      N/A     35  16  45 SW5       29.75S WCI  31
$$



USA.gov is the U.S. government's official web portal to all federal, state and local government web resources and services.